Der Flugplatz Krefeld-Egelsberg
  • ICAO-Code: EDLK
  • Koordinaten: N 51° 23,10'    E 06° 35,26'
  • Höhe ü. NN: 141 ft / 43 m
  • Platzfrequenz: 120.675 MHz - Krefeld Info
  • Landebahn: 06 - 24
  • Abmessungen: 640 x 30m
  • Belag: Gras
  • Tragfähigkeit: 2000 kg MTW; HEL 5700 kg MTW
  • Tankstelle: Nein
  • Betriebszeit: PPR
  • PPR-Request: Tel: 02151/ 560133, 368400
  • Landegebühr: Private Flüge 5 €, für gewerbliche Flüge wird eine gesonderte Gebühr erhoben

 

Wetterinformation

[Quelle: ADDS]
METAR
EDDL 231450Z 33006KT 280V030 CAVOK 29/15 Q1016 NOSIG =
TAF
EDDL 231100Z 2312/2418 29005KT CAVOK BECMG 2318/2321 VRB03KT BECMG 2406/2408 16005KT BECMG 2412/2415 28006KT =
Lade Webcam-Bild